Simultaneous Nadir Overpasses (SNOs) Predictions

Prediction of SNOs between FY3D and NOAA-19 Satellite Orbit:

Table of predicted SNOs for the next 14.0 days since TLE Epoch: 3/14/2020
Index Date (FY3D) Time (FY3D) Lat,Lon (FY3D) SZA (FY3D ) Date (NOAA-19) Time (NOAA-19) Lat,Lon (NOAA-19) SZA (NOAA-19 ) Distance(km) Time Diff (sec)
1 03/24/2020 11:55:41 -79.42, 148.49 100.50 03/24/2020 11:54:32 -79.41, 146.02 100.21 50.54 69
2 03/24/2020 12:46:29 79.55, -45.22 79.70 03/24/2020 12:45:23 79.56, -45.21 79.74 1.55 66
3 03/24/2020 13:37:14 -79.55, 122.06 100.31 03/24/2020 13:36:27 -79.57, 122.12 100.28 2.46 47
4 03/24/2020 14:27:59 79.58, -70.84 79.72 03/24/2020 14:27:24 79.55, -70.80 79.72 2.91 35
5 03/24/2020 15:18:44 -79.58, 96.44 100.29 03/24/2020 15:18:28 -79.56, 96.52 100.31 2.74 16
6 03/24/2020 16:09:28 79.57, -96.19 79.69 03/24/2020 16:09:24 79.57, -96.11 79.68 1.57 4
7 03/24/2020 17:00:13 -79.58, 71.09 100.32 03/24/2020 17:00:28 -79.58, 71.21 100.34 2.31 15
8 03/24/2020 17:50:57 79.57,-121.54 79.66 03/24/2020 17:51:24 79.59,-121.42 79.65 3.01 27
9 03/24/2020 18:41:42 -79.57, 45.75 100.36 03/24/2020 18:42:29 -79.57, 45.61 100.37 2.88 47
10 03/24/2020 19:32:26 79.57,-146.88 79.62 03/24/2020 19:33:25 79.58,-147.02 79.62 3.01 59




NCC Satellite Simultaneous Nadir Overpasses (SNOs) Prediction Service
